Waarnemingen

Advertentie
Mijn weer
Tarbes/Ossun, Frankrijk (7621): temperatuur & dauwpunt: 18.10.2018 01:00:00 - 24.10.2018 01:00:00 (CEST)Tarbes/Ossun, Frankrijk (7621): temperatuur 5cm: 18.10.2018 01:00:00 - 24.10.2018 01:00:00 (CEST)Tarbes/Ossun, Frankrijk (7621): temperatuur -20cm & temperatuur -100cm: 18.10.2018 01:00:00 - 24.10.2018 01:00:00 (CEST)Tarbes/Ossun, Frankrijk (7621): windsnelheid & windstoten: 18.10.2018 01:00:00 - 24.10.2018 01:00:00 (CEST)Tarbes/Ossun, Frankrijk (7621): windrichting: 18.10.2018 01:00:00 - 24.10.2018 01:00:00 (CEST)Tarbes/Ossun, Frankrijk (7621): luchtdruk: 18.10.2018 01:00:00 - 24.10.2018 01:00:00 (CEST)Tarbes/Ossun, Frankrijk (7621): zicht: 18.10.2018 01:00:00 - 24.10.2018 01:00:00 (CEST)Tarbes/Ossun, Frankrijk (7621): Zonneschijnduur: 18.10.2018 01:00:00 - 24.10.2018 01:00:00 (CEST)Tarbes/Ossun, Frankrijk (7621): neerslag: 18.10.2018 01:00:00 - 24.10.2018 01:00:00 (CEST)
Datum & Tijd tt [°C] td [°C] tt 5cm [°C] tt -20cm [°C] tt -100cm [°C] ff [km/u] ff [kn] fx [km/u] fx [kn] dd ppp [hPa] vv [km] sd [min] rr [mm]
24.10.2018 01:00:00 8,3 7,5 7,3 15,8 16,4 8 4 14 8 Z 1031,8 10 0 0,0
24.10.2018 00:00:00 9,0 8,2 7,5 15,8 16,4 4 2 12 7 ZO 1031,8 12 0 0,0
23.10.2018 23:00:00 8,9 8,1 8,5 15,9 16,4 8 5 12 7 ZZO 1031,5 11 0 0,0
23.10.2018 22:00:00 9,2 8,3 8,9 15,9 16,4 7 4 9 5 Z 1031,5 13 0 0,0
23.10.2018 21:00:00 9,0 7,9 9,1 15,9 16,4 6 3 10 5 Z 1031,4 15 0 0,0
23.10.2018 20:00:00 10,5 8,4 9,2 15,9 16,4 8 4 10 5 ZZW 1030,8 23 0 0,0
23.10.2018 19:00:00 14,5 9,3 12,7 15,7 16,4 8 4 13 7 NW 1029,2 28 42 0,0
23.10.2018 18:00:00 17,2 9,4 15,6 15,7 16,4 10 5 16 9 NW 1029,0 28 60 0,0
23.10.2018 17:00:00 17,9 9,0 18,7 15,5 16,4 8 5 21 11 NNW 1028,9 20 60 0,0
23.10.2018 16:00:00 18,1 9,7 22,0 15,5 16,4 10 5 20 11 W 1028,7 19 60 0,0
23.10.2018 15:00:00 17,6 10,2 22,2 15,4 16,4 9 5 20 11 NW 1029,0 20 60 0,0
23.10.2018 14:00:00 17,1 9,3 20,0 15,4 16,4 11 6 21 11 W 1029,1 24 60 0,0
23.10.2018 13:00:00 16,6 10,2 17,3 15,4 16,4 9 5 18 10 ZW 1029,7 23 60 0,0
23.10.2018 12:00:00 14,8 10,8 14,2 15,4 16,4 7 4 17 9 NNW 1030,0 19 55 0,0
23.10.2018 11:00:00 14,1 9,9 10,9 15,5 16,4 4 2 9 5 W 1029,9 19 60 0,0
23.10.2018 10:00:00 11,1 8,5 7,8 15,6 16,4 3 2 15 8 ZZO 1030,4 20 60 0,0
23.10.2018 09:00:00 7,4 6,7 7,3 15,7 16,4 10 5 16 9 ZZW 1030,0 17 15 0,0
23.10.2018 08:00:00 7,5 6,4 7,8 15,8 16,4 11 6 18 10 Z 1030,1 21 0 0,0
23.10.2018 07:00:00 7,6 6,1 8,6 15,8 16,4 9 5 14 8 Z 1030,4 16 0 0,0
23.10.2018 06:00:00 8,7 7,8 8,2 16,0 16,4 11 6 14 8 ZZO 1030,2 14 0 0,0
23.10.2018 05:00:00 8,1 7,3 8,4 16,0 16,4 6 4 13 7 ZO 1030,2 12 0 0,0
23.10.2018 04:00:00 8,0 7,2 8,2 16,1 16,4 9 5 11 6 ZZO 1030,1 12 0 0,0
23.10.2018 03:00:00 8,5 7,9 8,3 16,1 16,4 8 4 16 8 ZZO 1029,7 13 0 0,0
23.10.2018 02:00:00 8,5 7,3 8,8 16,3 16,4 6 3 15 8 Z 1030,1 11 0 0,0
23.10.2018 01:00:00 9,6 8,4 9,2 16,3 16,4 11 6 14 8 Z 1030,0 15 0 0,0
23.10.2018 00:00:00 9,9 8,0 9,6 16,4 16,4 7 4 17 9 ZZW 1030,3 18 0 0,0
22.10.2018 23:00:00 11,9 9,3 11,7 16,4 16,4 9 5 17 9 WZW 1029,6 20 0 0,0
22.10.2018 22:00:00 12,2 9,6 11,5 16,4 16,4 8 4 16 9 WZW 1029,2 23 0 0,0
22.10.2018 21:00:00 11,4 9,3 10,2 16,5 16,4 8 4 10 6 Z 1029,0 23 0 0,0
22.10.2018 20:00:00 10,9 8,6 11,0 16,4 16,4 10 5 18 10 ZZW 1028,7 21 0 0,0
22.10.2018 19:00:00 14,3 8,5 13,1 16,4 16,4 9 5 24 13 WNW 1027,1 27 31 0,0
22.10.2018 18:00:00 17,1 9,3 16,0 16,3 16,4 13 7 29 15 W 1025,8 19 60 0,0
22.10.2018 17:00:00 17,1 10,0 17,9 16,3 16,4 16 9 27 15 WNW 1025,5 30 34 0,0
22.10.2018 16:00:00 17,6 11,2 20,2 16,2 16,4 19 10 31 17 W 1024,8 18 34 0,0
22.10.2018 15:00:00 18,5 12,0 20,0 16,1 16,4 16 9 33 18 W 1024,5 19 50 0,0
22.10.2018 14:00:00 17,3 11,3 19,4 16,1 16,4 18 10 29 16 W 1024,9 13 36 0,0
22.10.2018 13:00:00 17,8 12,0 17,1 16,1 16,4 16 9 28 15 W 1025,2 16 48 0,0
22.10.2018 12:00:00 15,3 12,1 17,0 16,1 16,4 16 9 39 21 W 1025,5 9 21 0,0
22.10.2018 11:00:00 14,5 12,7 14,6 16,1 16,4 10 6 19 10 W 1025,7 9 10 0,0
22.10.2018 10:00:00 13,2 12,6 14,1 16,1 16,4 11 6 21 12 WZW 1025,5 7 0 0,2
22.10.2018 09:00:00 13,0 12,7 14,1 16,2 16,4 12 7 24 13 W 1024,9 4,5 0 0,0
22.10.2018 08:00:00 13,0 12,7 14,1 16,2 16,4 10 5 20 11 W 1024,3 1,1 0 0,0
22.10.2018 07:00:00 13,0 12,7 14,2 16,3 16,4 12 6 23 13 W 1024,1 0,3 0 0,0
22.10.2018 06:00:00 13,7 13,4 14,4 16,3 16,4 14 7 23 12 W 1023,6 0,2 0 0,0
22.10.2018 05:00:00 14,2 13,7 13,3 16,4 16,4 9 5 22 12 W 1023,2 1,0 0 0,0
22.10.2018 04:00:00 13,7 13,2 12,1 16,4 16,4 12 7 21 11 WZW 1023,1 4,3 0 0,0
22.10.2018 03:00:00 13,2 12,7 11,4 16,5 16,4 10 5 18 10 ZZW 1023,3 5 0 0,0
22.10.2018 02:00:00 12,6 11,5 11,5 16,6 16,4 9 5 12 6 Z 1023,5 18 0 0,0
22.10.2018 01:00:00 12,2 11,4 10,7 16,6 16,5 10 5 14 7 ZZO 1023,3 15 0 0,0
22.10.2018 00:00:00 12,0 11,1 10,9 16,7 16,4 8 4 14 8 ZZO 1023,3 13 0 0,0
21.10.2018 23:00:00 11,9 10,8 11,0 16,7 16,4 6 4 13 7 ZZO 1023,3 12 0 0,0
21.10.2018 22:00:00 13,3 12,4 11,4 16,7 16,4 9 5 11 6 ZZO 1022,8 14 0 0,0
21.10.2018 21:00:00 11,7 10,4 11,9 16,7 16,4 6 3 9 5 Z 1023,0 11 0 0,0
21.10.2018 20:00:00 14,5 12,7 12,4 16,6 16,4 6 3 9 5 ZZW 1022,3 17 0 0,0
21.10.2018 19:00:00 18,2 12,4 14,7 16,5 16,4 6 3 10 6 N 1021,1 29 31 0,0
21.10.2018 18:00:00 21,7 13,1 18,9 16,4 16,4 5 3 9 5 NNO 1020,4 19 60 0,0
21.10.2018 17:00:00 22,6 13,1 22,2 16,2 16,4 4 2 16 9 NNO 1020,7 19 60 0,0
21.10.2018 16:00:00 22,2 14,6 25,5 16,1 16,4 6 3 13 7 N 1020,9 19 60 0,0
21.10.2018 15:00:00 21,7 12,5 25,0 16,1 16,4 5 3 16 9 NNW 1021,6 20 60 0,0
21.10.2018 14:00:00 21,1 14,5 21,9 16,0 16,4 5 3 14 7 NW 1022,1 19 60 0,0
21.10.2018 13:00:00 19,4 13,3 19,2 16,0 16,4 5 3 13 7 NNW 1023,0 19 60 0,0
21.10.2018 12:00:00 18,0 13,1 16,6 16,0 16,4 5 3 11 6 N 1023,6 34 60 0,0
21.10.2018 11:00:00 16,9 12,8 13,8 16,1 16,4 3 1 11 6 ONO 1023,8 22 60 0,0
21.10.2018 10:00:00 13,9 12,1 11,2 16,2 16,4 4 2 12 7 ZZO 1024,2 15 60 0,0
21.10.2018 09:00:00 11,2 10,7 10,6 16,3 16,5 8 5 13 7 Z 1024,4 17 18 0,0
21.10.2018 08:00:00 10,5 10,2 10,3 16,3 16,4 12 7 18 10 Z 1024,4 15 0 0,0
21.10.2018 07:00:00 10,5 10,2 10,4 16,4 16,4 8 4 11 6 ZZO 1024,6 8 0 0,0
21.10.2018 06:00:00 10,4 10,1 10,4 16,4 16,4 7 4 14 8 Z 1024,7 10 0 0,0
21.10.2018 05:00:00 10,7 10,4 10,6 16,5 16,4 5 3 8 5 Z 1024,6 0,7 0 0,0
21.10.2018 04:00:00 11,2 10,9 12,1 16,5 16,4 5 3 11 6 Z 1024,6 0,5 0 0,0
21.10.2018 03:00:00 13,3 13,0 12,3 16,6 16,4 4 2 10 5 ZO 1024,3 0,1 0 0,0
21.10.2018 02:00:00 13,8 13,5 13,2 16,6 16,4 8 4 13 7 ZZO 1024,8 2,6 0 0,0
21.10.2018 01:00:00 14,2 13,9 13,2 16,6 16,4 7 4 11 6 Z 1025,4 1,2 0 0,0
21.10.2018 00:00:00 13,0 12,7 11,1 16,7 16,4 4 2 8 5 NNO 1025,9 0,1 0 0,0
20.10.2018 23:00:00 13,0 12,4 11,6 16,7 16,4 0 0 10 5 N 1025,6 1,9 0 0,0
20.10.2018 22:00:00 14,5 13,7 12,8 16,7 16,4 4 2 6 4 Z 1025,2 1,5 0 0,0
20.10.2018 21:00:00 15,3 14,5 14,3 16,7 16,5 4 2 7 4 N 1025,2 3,5 0 0,0
20.10.2018 20:00:00 15,9 14,4 15,2 16,6 16,4 3 2 10 6 NNW 1024,6 6 0 0,0
20.10.2018 19:00:00 16,3 14,3 16,3 16,6 16,4 8 5 12 7 NNO 1024,0 7 0 0,0
20.10.2018 18:00:00 18,2 14,7 19,2 16,5 16,4 9 5 15 8 NNO 1023,4 10 0 0,0
20.10.2018 17:00:00 19,0 14,7 21,0 16,3 16,4 7 4 13 7 N 1023,5 12 42 0,0
20.10.2018 16:00:00 19,0 14,7 23,8 16,3 16,4 8 4 19 10 N 1023,4 10 28 0,0
20.10.2018 15:00:00 20,0 15,2 22,6 16,2 16,4 5 3 11 6 O 1023,5 11 54 0,0
20.10.2018 14:00:00 18,3 14,4 17,9 16,2 16,4 3 1 13 7 OZO 1024,4 10 21 0,0
20.10.2018 13:00:00 16,1 14,1 17,5 16,2 16,4 11 6 17 9 NNW 1025,5 8 0 0,0
20.10.2018 12:00:00 16,3 13,8 17,3 16,2 16,4 5 3 16 9 WZW 1025,2 10 2 0,0
20.10.2018 11:00:00 15,3 14,0 15,7 16,3 16,5 8 5 13 7 ZW 1025,0 8 0 0,0
20.10.2018 10:00:00 14,7 13,7 15,1 16,3 16,4 6 3 10 6 WNW 1024,6 6 0 0,0
20.10.2018 09:00:00 14,5 13,5 15,0 16,3 16,4 5 3 11 6 ZZW 1023,9 5 0 0,0
20.10.2018 08:00:00 14,4 13,3 15,0 16,3 16,4 7 4 14 7 ZW 1023,3 6 0 0,0
20.10.2018 07:00:00 14,4 13,3 15,0 16,3 16,4 9 5 18 10 W 1022,6 4,8 0 0,0
20.10.2018 06:00:00 14,5 13,0 15,0 16,3 16,4 6 4 17 9 W 1022,1 7 0 0,0
20.10.2018 05:00:00 14,8 13,5 14,5 16,3 16,4 10 6 17 9 NW 1021,2 7 0 0,0
20.10.2018 04:00:00 15,2 13,4 14,9 16,3 16,4 6 3 10 5 ZZW 1021,3 10 0 0,0
20.10.2018 03:00:00 15,1 13,1 15,1 16,4 16,4 6 4 10 6 ZZW 1021,5 9 0 0,0
20.10.2018 02:00:00 15,1 13,3 15,3 16,4 16,4 9 5 18 10 WZW 1021,6 7 0 0,0
20.10.2018 01:00:00 15,1 13,3 15,4 16,4 16,5 8 5 23 12 W 1021,6 7 0 0,0
20.10.2018 00:00:00 15,3 13,5 15,5 16,4 16,5 11 6 19 10 W 1021,8 7 0 0,0
19.10.2018 23:00:00 16,1 14,5 14,6 16,4 16,4 9 5 18 10 W 1021,2 7 0 0,0
19.10.2018 22:00:00 15,5 14,0 14,0 16,4 16,5 3 2 8 4 ZZW 1020,6 13 0 0,0
19.10.2018 21:00:00 16,8 14,4 14,9 16,3 16,5 5 3 9 5 WZW 1019,9 17 0 0,0
19.10.2018 20:00:00 17,3 14,0 14,5 16,3 16,5 0 0 9 5 N 1019,3 19 0 0,0
19.10.2018 19:00:00 19,3 13,9 17,9 16,1 16,5 6 4 11 6 NO 1018,0 28 2 0,0
19.10.2018 18:00:00 20,3 14,6 20,1 16,0 16,5 5 3 18 10 NNO 1017,5 28 1 0,0
19.10.2018 17:00:00 21,3 14,5 21,9 15,9 16,5 8 5 23 12 NNO 1017,1 20 37 0,0
19.10.2018 16:00:00 21,6 13,0 24,9 15,7 16,5 13 7 23 12 NNO 1017,0 21 60 0,0
19.10.2018 15:00:00 21,7 14,3 25,1 15,6 16,5 6 3 23 13 O 1016,9 18 60 0,0
19.10.2018 14:00:00 20,5 14,2 21,8 15,6 16,5 8 4 19 10 NNO 1017,5 32 50 0,0
19.10.2018 13:00:00 19,5 14,1 20,6 15,5 16,5 5 3 11 6 N 1018,2 20 27 0,0
19.10.2018 12:00:00 18,4 14,1 17,4 15,6 16,5 3 2 10 6 WNW 1018,3 31 20 0,0
19.10.2018 11:00:00 17,1 13,6 14,6 15,6 16,5 3 2 10 5 Z 1018,0 34 50 0,0
19.10.2018 10:00:00 14,3 13,2 12,9 15,6 16,5 8 4 14 7 Z 1018,3 24 53 0,0
19.10.2018 09:00:00 12,7 12,4 12,8 15,7 16,5 10 5 13 7 ZZO 1018,0 14 0 0,0
19.10.2018 08:00:00 12,6 12,3 12,6 15,7 16,5 8 4 14 7 ZZO 1017,8 11 0 0,0
19.10.2018 07:00:00 12,2 12,0 11,7 15,8 16,5 10 5 14 8 ZZO 1017,7 7 0 0,0
19.10.2018 06:00:00 11,6 11,3 10,5 15,8 16,5 7 4 10 5 ZZW 1017,3 0,1 0 0,0
19.10.2018 05:00:00 10,1 9,6 10,1 15,9 16,5 4 2 8 4 N 1017,4 0,1 0 0,0
19.10.2018 04:00:00 11,1 10,6 10,7 15,9 16,5 3 2 11 6 NW 1017,1 3,4 0 0,0
19.10.2018 03:00:00 11,2 10,7 11,5 16,0 16,5 7 4 9 5 Z 1017,2 1,2 0 0,0
19.10.2018 02:00:00 12,8 12,5 11,1 16,0 16,5 4 2 8 5 ZO 1017,0 6 0 0,0
19.10.2018 01:00:00 11,3 10,7 11,0 16,1 16,5 5 3 8 4 Z 1017,2 4,0 0 0,0
19.10.2018 00:00:00 11,3 10,5 10,9 16,1 16,5 5 3 8 4 ZZW 1017,2 7 0 0,0
18.10.2018 23:00:00 13,2 12,4 10,8 16,1 16,5 0 0 5 3 N 1016,9 0,2 0 0,0
18.10.2018 22:00:00 14,5 13,4 12,0 16,0 16,5 3 2 10 5 NNO 1016,4 11 0 0,0
18.10.2018 21:00:00 15,8 13,5 15,3 16,0 16,5 3 2 12 6 N 1015,9 17 0 0,0
18.10.2018 20:00:00 16,1 13,4 15,9 16,0 16,5 4 2 11 6 N 1015,6 20 0 0,0
18.10.2018 19:00:00 16,8 13,1 16,9 15,9 16,5 7 4 16 9 NO 1014,8 21 0 0,0
18.10.2018 18:00:00 17,4 13,1 18,4 15,8 16,5 8 4 15 8 NO 1014,3 26 0 0,0
18.10.2018 17:00:00 17,9 13,2 19,9 15,7 16,5 6 4 24 13 ONO 1014,1 28 0 0,0
18.10.2018 16:00:00 17,7 13,4 19,2 15,7 16,5 9 5 18 10 NO 1014,1 29 0 0,0
18.10.2018 15:00:00 17,1 13,6 18,9 15,6 16,5 10 5 24 13 NO 1014,3 25 0 0,0
18.10.2018 14:00:00 17,5 13,6 19,0 15,6 16,5 14 8 21 11 NNO 1014,5 18 8 0,0
18.10.2018 13:00:00 16,8 14,1 18,6 15,6 16,5 9 5 19 11 NO 1015,2 18 5 0,0
18.10.2018 12:00:00 15,5 13,9 16,8 15,6 16,5 8 4 17 9 NNO 1015,7 13 0 0,0
18.10.2018 11:00:00 14,0 13,2 14,6 15,6 16,5 7 4 10 5 NNO 1015,8 16 0 0,0
18.10.2018 10:00:00 12,7 11,6 13,0 15,6 16,5 5 3 9 5 NO 1015,9 33 0 0,0
18.10.2018 09:00:00 11,7 10,9 11,9 15,7 16,5 4 2 10 5 Z 1015,7 36 0 0,2
18.10.2018 08:00:00 11,9 10,8 12,5 15,7 16,5 5 3 14 7 Z 1015,0 38 0 0,0
18.10.2018 07:00:00 12,2 11,3 12,5 15,8 16,6 5 3 11 6 ZZO 1014,9 45 0 0,0
18.10.2018 06:00:00 11,9 11,3 11,7 15,8 16,6 9 5 12 7 Z 1014,9 44 0 0,0
18.10.2018 05:00:00 11,3 11,0 10,0 15,9 16,5 4 2 6 3 ZW 1015,0 26 0 0,0
18.10.2018 04:00:00 9,4 8,9 9,8 16,0 16,6 4 2 8 5 Z 1015,6 16 0 0,0
18.10.2018 03:00:00 10,5 10,0 10,1 16,0 16,5 5 3 8 4 ZZO 1015,4 26 0 0,0
18.10.2018 02:00:00 10,6 10,3 10,2 16,1 16,6 3 2 6 3 ZW 1015,6 19 0 0,0
18.10.2018 01:00:00 9,6 9,0 - - - 4 2 5 3 ZZW 1016,2 14 - 0,0

tt = temperatuur
td = dauwpunt
tt 5cm = temperatuur 5cm
tt -20cm = temperatuur -20cm
tt -100cm = temperatuur -100cm
ff = windsnelheid
fx = windstoten
dd = windrichting
ppp = luchtdruk
vv = zicht
sd = Zonneschijnduur
rr = neerslag

Weerstations in de omgeving